Погода в Богдановке

Россия / Самарская область     52°42′17″N   50°45′34″E
темп.,
°C
ветер,
м/с
пор.,
м/с
влажн.,
%
обл.,
%
осадки,
мм/ч
давл.,
гПа
погр.,
м
24 января, вс
вс2401:00−2ю5897100 0.1 1024216
04:00+1юз510100100 0.1 1023328
07:00+1юз59100100 0.4 1024256
10:00+1юз510100100 0.6 1026284
13:00+1юз61195100 0.0 1027352
16:00−2ююз5109198 0.0 1027279
19:00−3ююз51192100 0.0 1029244
22:00−3ююз5119497 0.0 1030243
25 января, пн
пн2501:00−3ююз5109597 0.0 1031244
04:00−2ююз699790 0.0 1031400
07:00−1ю6897100 0.0 1031510
10:00−2ю699787 0.0 1031361
13:00−1ююв6993100 0.0 1030457
16:00−1ю61092100 0.1 1031529
19:00−4ю61095100 0.0 1031442
22:00−3ю61096100 0.1 1030622
26 января, вт
вт2601:00−3ю61194100 0.1 1030599
04:00−2ю61193100 0.1 1029627
07:00−2ю61092100 0.0 1029541
10:00−5ю71295100 0.0 1029365
13:00−4ю71094100 0.0 1029459
16:00−5ю61094100 0.1 1028420
19:00−6ю71392100 0.0 1028340
22:00−5ю61295100 0.1 1028456
27 января, ср
ср2701:00−5ю61094100 0.0 1028407
04:00−7ююв51195100 0.1 1027295
07:00−4ю61194100 0.0 1025358
10:00−8ююв6139398 0.0 1027280
13:00−7ю5109193 0.0 1027317
16:00−7ююв489479 0.0 1027166
19:00−7ююв61489100 0.0 1025284
22:00−8ююв61587100 0.0 1025289
28 января, чт
чт2801:00−8ююв61486100 0.0 1024302
04:00−9ююв51487100 0.0 1023293
07:00−9ююв61390100 0.0 1022282
10:00−8юв5118497 0.0 1027263
13:00−6юв61284100 0.0 1026339
16:00−6юв5128495 0.0 1025339
19:00−7ююв61488100 0.0 1019408
22:00−7ююв51189100 0.0 1018351